GW6411 Weather Reports


Display with metric or nautical units.
time (UTC)temp
F
wind
direction
speed
MPH
gust
MPH
rain 1hr
in
rain 24hr
in
rain mn
in
humidity
%
barometer
mb
20260504034511 55 125 0.0 0.0 0.00 0.03 0.03 69 1006.0
20260504033018 56 126 0.0 1.0 0.00 0.03 0.03 66 1006.1
20260504031520 57 125 0.0 1.0 0.00 0.03 0.03 64 1006.1
20260504030016 58 125 0.0 1.0 0.00 0.03 0.03 63 1006.0
20260504024519 58 105 0.0 1.0 0.00 0.03 0.03 62 1006.0
20260504023018 60 105 0.0 1.0 0.00 0.03 0.03 59 1005.8
20260504021520 61 86 0.0 2.0 0.00 0.03 0.03 57 1005.7
20260504020021 62 178 0.0 0.0 0.00 0.03 0.03 54 1005.7
20260504014519 63 178 0.0 4.0 0.00 0.03 0.03 51 1005.4
20260504013016 64 150 0.0 1.0 0.00 0.03 0.03 50 1005.4
20260504011514 65 221 0.0 4.0 0.00 0.03 0.03 48 1005.4
20260504010019 66 210 1.0 4.0 0.00 0.03 0.03 46 1005.1
20260504004509 67 119 1.0 5.0 0.00 0.03 0.03 44 1005.2
20260504003007 68 219 0.0 2.0 0.00 0.03 0.03 42 1005.2
20260504001508 69 176 0.0 2.0 0.00 0.03 0.03 40 1005.2
20260504000016 70 197 1.0 3.0 0.00 0.03 0.03 37 1005.2
20260503234522 72 236 0.0 6.0 0.00 0.03 0.03 36 1005.2
20260503233004 73 252 1.0 5.0 0.00 0.03 0.03 35 1005.2
20260503231511 73 286 1.0 8.0 0.00 0.03 0.03 35 1005.4
20260503230015 74 343 2.0 6.0 0.00 0.03 0.03 37 1005.6
20260503224516 74 238 1.0 6.0 0.00 0.03 0.03 36 1005.6
20260503223021 73 218 2.0 9.0 0.00 0.03 0.03 36 1005.7
20260503221506 72 167 2.0 7.0 0.00 0.03 0.03 37 1005.8
20260503220010 72 59 4.0 13.0 0.00 0.03 0.03 37 1005.8
20260503214534 72 214 2.0 7.0 0.00 0.03 0.03 37 1005.9
20260503213019 72 164 3.0 11.0 0.00 0.03 0.03 39 1006.1
20260503211523 71 253 2.0 11.0 0.00 0.03 0.03 39 1006.4
20260503210008 70 213 2.0 9.0 0.00 0.03 0.03 38 1006.6
20260503204512 71 281 2.0 7.0 0.00 0.03 0.03 42 1006.7
20260503203016 70 293 5.0 11.0 0.00 0.03 0.03 38 1006.9
20260503201520 70 33 3.0 10.0 0.00 0.03 0.03 41 1007.0
20260503200034 68 274 4.0 12.0 0.00 0.03 0.03 42 1007.3
20260503194510 68 292 3.0 11.0 0.00 0.03 0.03 42 1007.6
20260503193015 67 227 4.0 11.0 0.00 0.03 0.03 41 1007.9
20260503191519 68 32 4.0 11.0 0.00 0.03 0.03 42 1008.1
20260503190023 67 40 4.0 12.0 0.00 0.03 0.03 41 1008.5
20260503184538 66 294 3.0 9.0 0.00 0.03 0.03 41 1008.5
20260503183028 64 165 1.0 11.0 0.00 0.03 0.03 54 1008.6
20260503181515 63 302 4.0 16.0 0.00 0.03 0.03 54 1009.0
20260503180040 62 326 2.0 11.0 0.00 0.03 0.03 55 1009.2
20260503174531 60 345 3.0 13.0 0.00 0.03 0.03 54 1009.3
20260503173038 61 141 3.0 10.0 0.00 0.03 0.03 52 1009.4
20260503171528 61 299 3.0 9.0 0.00 0.03 0.03 50 1009.7
20260503081537 44 119 0.0 1.0 0.00 0.00 0.00 60 1014.1
20260503071507 44 163 0.0 1.0 0.00 0.00 0.00 60 1014.3
20260503054516 44 129 0.0 1.0 0.00 0.00 0.00 60 1015.0
20260503053020 44 319 0.0 1.0 0.00 0.00 0.00 60 1015.0
20260503051532 43 160 0.0 1.0 0.00 0.00 0.00 61 1015.1
20260503050024 43 167 0.0 0.0 0.00 0.00 0.00 62 1015.2
20260503044507 43 169 0.0 0.0 0.00 0.00 0.00 62 1015.3
20260503043015 43 168 0.0 0.0 0.00 0.00 0.00 63 1015.4
20260503041519 44 168 0.0 0.0 0.00 0.00 0.00 62 1015.5
20260503040025 44 168 0.0 0.0 0.00 0.00 0.00 61 1015.6